User: anonymous   Login
Location: Unspecified
(0.0000°N, 0.0000°E)
Time: 20:14:44
(UTC+00:00)
Language:

Cosmos 1574 - Orbit

View from above orbital plane
View from above orbital plane
View from above satellite
View from above satellite

Ground track
Ground track

The orbit data is extracted from the following two-line orbital elements,

1 15055U 84062A   19341.55497282  .00000027  00000-0  12868-4 0  9994
2 15055  82.9592  38.5438 0026701 213.6307 255.4972 13.74315834778333
Epoch (UTC): 07 December 2019 13:19:09
Eccentricity: 0.0026701
inclination: 82.9592°
perigee height: 964 km
apogee height: 1004 km
right ascension of ascending node: 38.5438°
argument of perigee: 213.6307°
revolutions per day: 13.74315834
mean anomaly at epoch: 255.4972°
orbit number at epoch: 77833

The dashed part of the orbit path shows where the satellite is in the earth's shadow,  

DLR